Location: Unspecified
(0.0000°N, 0.0000°E)
Time: 02:39:47
(UTC+00:00)

CZ-3C DEB - Pass Details

Date: 18 February 2026
Orbit: 610 x 36841 km, 20.5° (Epoch: 4 October)

Event Time Altitude Azimuth Distance (km) Brightness Sun altitude
Rises 08:10:36 0° 283° (WNW) 6,829 ? 28.5°
Reaches altitude 10° 08:13:31 10° 288° (WNW) 6,704 ? 29.2°
Maximum altitude 12:52:22 73° 344° (NNW) 36,831 ? 75.0°
Drops below altitude 10° 18:39:21 10° 127° (SE) 5,222 ? -6.2°
Sets 18:41:34 0° 122° (ESE) 5,549 ? -6.8°
